DW4277 Weather Reports


time (UTC)temp
F
wind
direction
speed
knots
gust
knots
rain 1hr
in
rain 24hr
in
rain mn
in
humidity
%
barometer
mb
20260905223037 69 348 3.5 18.2 0.00 0.00 0.00 63 1021.5
20260905221539 69 331 13.0 20.9 0.00 0.00 0.00 63 1021.2
20260905220028 70 342 7.8 18.2 0.00 0.00 0.00 62 1021.1
20260905214523 70 342 9.6 20.9 0.00 0.00 0.00 62 1021.0
20260905213022 70 334 12.2 23.5 0.00 0.00 0.00 61 1020.8
20260905211536 70 333 14.8 27.8 0.00 0.00 0.00 60 1020.7
20260905210019 70 327 10.4 21.7 0.00 0.00 0.00 60 1020.6
20260905204518 71 329 11.3 19.1 0.00 0.00 0.00 59 1020.6
20260905203017 71 342 12.2 32.2 0.00 0.00 0.00 59 1020.5
20260905201516 71 333 7.0 27.8 0.00 0.00 0.00 60 1020.5
20260905200019 71 326 14.8 25.2 0.00 0.00 0.00 60 1020.3
20260905194513 71 315 7.8 27.8 0.00 0.00 0.00 61 1020.2
20260905193012 71 300 14.8 30.4 0.00 0.00 0.00 61 1020.1
20260905191511 71 316 8.7 27.8 0.00 0.00 0.00 61 1020.1
20260905190010 71 323 5.2 18.2 0.00 0.00 0.00 61 1019.9
20260905184508 72 327 12.2 21.7 0.00 0.00 0.00 59 1019.7
20260905183006 72 328 10.4 20.9 0.00 0.00 0.00 58 1019.5
20260905181506 72 324 13.0 34.8 0.00 0.00 0.00 57 1019.2
20260905180005 73 325 11.3 29.5 0.00 0.00 0.00 57 1019.1
20260905174503 73 315 8.7 30.4 0.00 0.00 0.00 56 1018.9
20260905173007 73 328 18.2 29.5 0.00 0.00 0.00 55 1018.7
20260905171506 74 325 13.0 26.1 0.00 0.00 0.00 53 1018.6
20260905170002 75 313 15.6 36.5 0.00 0.00 0.00 52 1018.5
20260905164502 75 330 18.2 40.0 0.00 0.00 0.00 51 1018.2
20260905163002 75 305 20.9 40.0 0.00 0.00 0.00 51 1018.1
20260905161606 75 320 22.6 39.1 0.00 0.00 0.00 51 1018.1
20260905160100 76 311 19.1 38.2 0.00 0.00 0.00 51 1017.9
20260905154559 76 343 24.3 47.8 0.00 0.00 0.00 50 1018.1
20260905153058 76 306 23.5 43.4 0.00 0.00 0.00 50 1017.9
20260905151558 76 338 26.9 41.7 0.00 0.00 0.00 50 1017.8
20260905150057 76 304 16.5 38.2 0.00 0.00 0.00 51 1017.8
20260905144557 76 348 24.3 40.0 0.00 0.00 0.00 51 1017.8
20260905143055 76 315 10.4 34.8 0.00 0.00 0.00 52 1018.0
20260905141556 76 329 23.5 39.1 0.00 0.00 0.00 52 1017.9
20260905140054 75 340 23.5 41.7 0.00 0.00 0.00 53 1018.2
20260905134556 75 330 27.8 42.6 0.00 0.00 0.00 52 1018.3
20260905133052 74 322 24.3 48.7 0.00 0.00 0.00 53 1018.3
20260905131554 74 320 23.5 46.9 0.00 0.00 0.00 54 1018.2
20260905130052 74 314 20.0 35.6 0.00 0.00 0.00 55 1018.3
20260905124552 73 354 21.7 39.1 0.00 0.00 0.00 56 1018.4
20260905123051 73 322 22.6 38.2 0.00 0.00 0.00 58 1018.3
20260905121549 73 332 19.1 36.5 0.00 0.00 0.00 58 1018.4
20260905120049 73 342 19.1 36.5 0.00 0.00 0.00 58 1018.4
20260905114605 73 321 22.6 39.1 0.00 0.00 0.00 57 1018.4
20260905113051 73 356 26.1 40.8 0.00 0.00 0.00 56 1018.4
20260905111552 72 338 21.7 40.8 0.00 0.00 0.00 59 1018.2
20260905110046 71 325 16.5 43.4 0.00 0.00 0.00 62 1018.4
20260905104547 70 11 20.0 37.4 0.00 0.00 0.00 64 1018.3
20260905103039 69 344 26.9 43.4 0.00 0.00 0.00 64 1018.5
20260905101539 69 348 20.9 35.6 0.00 0.00 0.00 67 1018.6
20260905100032 68 326 14.8 26.1 0.00 0.00 0.00 69 1018.6
20260905094530 67 330 5.2 16.5 0.00 0.00 0.00 71 1018.6
20260905093027 66 328 0.0 0.0 0.00 0.00 0.00 72 1018.6
20260905091526 65 328 0.0 12.2 0.00 0.00 0.00 72 1018.6
20260905090026 65 327 0.0 13.9 0.00 0.00 0.00 72 1018.6
20260905084532 65 325 8.7 21.7 0.00 0.00 0.00 70 1018.8
20260905083024 65 320 7.8 21.7 0.00 0.00 0.00 70 1018.7
20260905081524 65 327 15.6 21.7 0.00 0.00 0.00 69 1018.9
20260905080035 65 347 7.8 19.1 0.00 0.00 0.00 69 1019.0
20260905074520 65 339 10.4 19.1 0.00 0.00 0.00 68 1019.4
20260905073033 65 328 13.9 23.5 0.00 0.00 0.00 68 1019.3
20260905071516 65 354 9.6 19.1 0.00 0.00 0.00 67 1018.9
20260905070014 65 359 8.7 20.9 0.00 0.00 0.00 66 1018.9
20260905064514 66 342 11.3 22.6 0.00 0.00 0.00 63 1019.0
20260905063009 66 7 14.8 26.9 0.00 0.00 0.00 60 1018.5
20260905061505 68 19 12.2 35.6 0.00 0.00 0.00 58 1018.2
20260905060001 68 9 13.9 31.3 0.00 0.00 0.00 57 1017.7
20260905054558 68 333 12.2 33.0 0.00 0.00 0.00 56 1017.1
20260905053056 68 44 17.4 33.0 0.00 0.00 0.00 57 1016.2
20260905051551 68 358 7.8 24.3 0.00 0.00 0.00 59 1015.7
20260905050047 68 8 15.6 31.3 0.00 0.00 0.00 59 1015.3
20260905044544 68 37 17.4 35.6 0.00 0.00 0.00 61 1014.7
20260905043106 68 32 16.5 30.4 0.00 0.00 0.00 64 1013.9
20260905041539 69 19 11.3 24.3 0.00 0.00 0.00 63 1015.0
20260905040046 70 46 15.6 40.0 0.00 0.00 0.00 60 1014.7
20260905034533 71 62 16.5 32.2 0.00 0.00 0.00 65 1014.0
20260905033030 72 34 16.5 34.8 0.00 0.00 0.00 67 1013.7
20260905031527 74 50 7.0 20.9 0.00 0.00 0.00 67 1013.3
20260905030024 76 338 12.2 31.3 0.00 0.00 0.00 62 1012.3
20260905024523 76 21 0.0 0.0 0.00 0.00 0.00 54 1012.1
20260905023021 76 21 0.0 16.5 0.00 0.00 0.00 54 1011.9
20260905021520 76 335 0.9 9.6 0.00 0.00 0.00 53 1012.0
20260905020017 76 334 0.0 0.0 0.00 0.00 0.00 54 1011.7
20260905014519 76 334 0.0 0.0 0.00 0.00 0.00 53 1011.5
20260905013013 75 334 0.0 9.6 0.00 0.00 0.00 56 1011.7
20260905011508 72 336 2.6 19.1 0.00 0.00 0.00 61 1011.6
20260905010014 70 230 0.0 0.0 0.00 0.00 0.00 69 1011.5
20260905004508 71 230 0.0 0.0 0.00 0.00 0.00 71 1011.5
20260905003005 70 230 0.0 0.0 0.00 0.00 0.00 67 1011.3
20260905001504 70 230 0.0 0.0 0.00 0.00 0.00 68 1011.3
20260905000008 70 230 0.0 0.0 0.00 0.00 0.00 70 1011.2
20260904234502 70 230 0.0 0.0 0.00 0.00 0.00 68 1011.3
20260904233107 70 230 0.0 0.0 0.00 0.00 0.00 66 1011.2
20260904231559 71 230 0.0 0.0 0.00 0.00 0.00 67 1011.1
20260904224556 71 230 0.0 0.0 0.00 0.00 0.00 66 1010.9